CW8998 Weather Reports


Display with metric or nautical units.
time (UTC)temp
F
wind
direction
speed
MPH
gust
MPH
rain 1hr
in
rain 24hr
in
rain mn
in
humidity
%
barometer
mb
20260831001542 78 42 1.0 4.0 0.00 0.00 0.00 77 1008.3
20260831001027 78 77 1.0 4.0 0.00 0.00 0.00 77 1008.2
20260831000525 78 5 0.0 3.0 0.00 0.00 0.00 77 1008.2
20260831000057 78 109 2.0 4.0 0.00 0.00 0.00 77 1008.2
20260830235524 79 0 1.0 4.0 0.00 0.00 0.00 77 1008.1
20260830235028 79 38 0.0 7.0 0.00 0.00 0.00 76 1008.0
20260830234548 79 29 1.0 7.0 0.00 0.00 0.00 76 1008.1
20260830234038 79 61 1.0 7.0 0.00 0.00 0.00 76 1008.1
20260830233527 79 94 2.0 7.0 0.00 0.00 0.00 76 1008.1
20260830233043 79 352 1.0 6.0 0.00 0.00 0.00 75 1008.2
20260830232528 79 360 1.0 7.0 0.00 0.00 0.00 75 1008.2
20260830232028 79 55 2.0 7.0 0.00 0.00 0.00 75 1008.2
20260830231545 79 80 1.0 7.0 0.00 0.00 0.00 75 1008.0
20260830231028 79 209 2.0 7.0 0.00 0.00 0.00 75 1008.0
20260830230528 79 186 1.0 4.0 0.00 0.00 0.00 75 1008.1
20260830230043 79 0 1.0 7.0 0.00 0.00 0.00 75 1008.1
20260830225527 79 325 0.0 7.0 0.00 0.00 0.00 75 1008.0
20260830225028 79 183 0.0 8.0 0.00 0.00 0.00 75 1008.1
20260830224552 79 252 1.0 8.0 0.00 0.00 0.00 75 1008.1
20260830224031 79 265 1.0 8.0 0.00 0.00 0.00 74 1008.1
20260830223526 80 5 2.0 8.0 0.00 0.00 0.00 74 1007.9
20260830223059 79 44 2.0 9.0 0.00 0.00 0.00 74 1008.0
20260830222527 79 14 0.0 9.0 0.00 0.00 0.00 74 1008.1
20260830222027 79 46 3.0 9.0 0.00 0.00 0.00 74 1008.0
20260830221600 80 96 2.0 8.0 0.00 0.00 0.00 74 1008.1
20260830221030 79 265 1.0 9.0 0.00 0.00 0.00 75 1008.1
20260830220529 79 51 3.0 9.0 0.00 0.00 0.00 74 1008.1
20260830220044 79 157 1.0 9.0 0.00 0.00 0.00 74 1008.1
20260830215528 79 219 2.0 9.0 0.00 0.00 0.00 74 1008.1
20260830215031 79 321 3.0 9.0 0.00 0.00 0.00 74 1008.1
20260830214551 79 80 2.0 9.0 0.00 0.00 0.00 74 1008.2
20260830214028 79 199 3.0 9.0 0.00 0.00 0.00 74 1008.3
20260830213531 79 136 1.0 8.0 0.00 0.00 0.00 73 1008.3
20260830213046 80 5 2.0 8.0 0.00 0.00 0.00 73 1008.3
20260830212528 79 41 3.0 8.0 0.00 0.00 0.00 73 1008.5
20260830212028 80 88 2.0 9.0 0.00 0.00 0.00 73 1008.3
20260830211543 80 238 3.0 11.0 0.00 0.00 0.00 73 1008.4
20260830211028 80 116 2.0 11.0 0.00 0.00 0.00 72 1008.3
20260830210529 80 24 1.0 6.0 0.00 0.00 0.00 72 1008.4
20260830210051 79 328 2.0 6.0 0.00 0.00 0.00 74 1008.4
20260830205528 78 352 1.0 8.0 0.00 0.00 0.00 75 1008.5
20260830205026 77 10 2.0 8.0 0.00 0.00 0.00 75 1008.5
20260830204548 78 342 4.0 8.0 0.00 0.00 0.00 75 1008.6
20260830204028 78 0 3.0 7.0 0.00 0.00 0.00 75 1008.9
20260830203528 78 140 2.0 6.0 0.00 0.00 0.00 74 1008.8
20260830203051 78 220 1.0 7.0 0.00 0.00 0.00 75 1008.8
20260830202529 78 37 2.0 9.0 0.00 0.00 0.00 75 1008.8
20260830202029 77 5 2.0 9.0 0.00 0.00 0.00 76 1008.7
20260830201558 77 62 3.0 9.0 0.00 0.00 0.00 75 1008.9
20260830201032 77 5 2.0 7.0 0.00 0.00 0.00 76 1009.0
20260830200527 77 225 2.0 7.0 0.00 0.00 0.00 76 1008.9
20260830200100 77 310 1.0 13.0 0.00 0.00 0.00 76 1009.0
20260830195529 76 46 1.0 13.0 0.00 0.00 0.00 76 1009.0
20260830195027 76 281 2.0 11.0 0.00 0.00 0.00 76 1009.0
20260830194605 77 141 2.0 11.0 0.00 0.00 0.00 75 1009.0
20260830194026 77 269 3.0 10.0 0.00 0.00 0.00 74 1009.0
20260830193526 77 227 4.0 10.0 0.00 0.00 0.00 76 1009.0
20260830193054 76 9 2.0 12.0 0.00 0.00 0.00 77 1009.1
20260830192529 75 155 2.0 12.0 0.00 0.00 0.00 78 1009.2
20260830192028 75 105 3.0 12.0 0.00 0.00 0.00 78 1009.4
20260830191546 75 26 3.0 10.0 0.00 0.00 0.00 78 1009.4
20260830191029 75 169 2.0 10.0 0.00 0.00 0.00 78 1009.5
20260830190527 75 86 2.0 10.0 0.00 0.00 0.00 78 1009.7
20260830190047 75 214 3.0 10.0 0.00 0.00 0.00 78 1009.7
20260830185528 75 91 3.0 10.0 0.00 0.00 0.00 77 1009.7
20260830185026 75 57 2.0 8.0 0.00 0.00 0.00 77 1009.7
20260830184552 75 0 2.0 8.0 0.00 0.00 0.00 79 1009.7
20260830184028 74 67 3.0 8.0 0.00 0.00 0.00 79 1009.9
20260830183528 74 241 1.0 9.0 0.00 0.00 0.00 80 1010.0
20260830183044 73 22 2.0 9.0 0.00 0.00 0.00 80 1010.1
20260830182529 73 186 3.0 9.0 0.00 0.00 0.00 80 1010.1
20260830182031 73 150 2.0 8.0 0.00 0.00 0.00 80 1010.2
20260830181545 74 168 2.0 6.0 0.00 0.00 0.00 79 1010.2
20260830181028 74 206 2.0 6.0 0.00 0.00 0.00 80 1010.3
20260830180529 73 323 2.0 6.0 0.00 0.00 0.00 80 1010.2
20260830180100 73 215 2.0 9.0 0.00 0.00 0.00 80 1010.2
20260830175529 73 190 3.0 9.0 0.00 0.00 0.00 80 1010.3
20260830175029 73 270 2.0 9.0 0.00 0.00 0.00 79 1010.3
20260830174559 74 319 1.0 8.0 0.00 0.00 0.00 79 1010.1
20260830174027 74 250 2.0 13.0 0.00 0.00 0.00 79 1010.0
20260830173530 73 147 1.0 13.0 0.00 0.00 0.00 79 1010.2
20260830173102 73 90 2.0 9.0 0.00 0.00 0.00 79 1010.3
20260830172528 74 232 2.0 6.0 0.00 0.00 0.00 78 1010.2
20260830172030 74 254 1.0 7.0 0.00 0.00 0.00 79 1010.1
20260830171558 73 211 2.0 7.0 0.00 0.00 0.00 80 1010.2
20260830171025 73 107 1.0 9.0 0.00 0.00 0.00 79 1010.1
20260830170525 73 222 3.0 9.0 0.00 0.00 0.00 79 1010.2
20260830170045 73 94 3.0 9.0 0.00 0.00 0.00 79 1010.3
20260830165527 73 284 1.0 9.0 0.00 0.00 0.00 80 1010.1
20260830165026 72 96 3.0 8.0 0.00 0.00 0.00 80 1010.1
20260830164558 73 258 2.0 11.0 0.00 0.00 0.00 79 1010.0
20260830164028 73 27 3.0 11.0 0.00 0.00 0.00 79 1010.0
20260830163526 73 101 2.0 10.0 0.00 0.00 0.00 79 1009.9
20260830163059 73 258 2.0 10.0 0.00 0.00 0.00 81 1010.0
20260830162528 71 12 4.0 10.0 0.00 0.00 0.00 81 1009.7
20260830162027 71 360 1.0 9.0 0.00 0.00 0.00 83 1009.8
20260830161545 70 309 1.0 12.0 0.00 0.00 0.00 84 1009.9
20260830161025 70 5 4.0 12.0 0.00 0.00 0.00 84 1009.9
20260830160528 70 258 3.0 9.0 0.00 0.00 0.00 84 1009.8
20260830160054 69 0 2.0 11.0 0.00 0.00 0.00 85 1009.7
20260830155524 69 57 3.0 11.0 0.00 0.00 0.00 85 1009.6
20260830155032 69 88 3.0 12.0 0.00 0.00 0.00 86 1009.5
20260830154551 69 136 4.0 12.0 0.00 0.00 0.00 86 1009.9
20260830154028 68 30 4.0 12.0 0.00 0.00 0.00 86 1010.1
20260830153524 68 43 2.0 9.0 0.00 0.00 0.00 86 1010.0
20260830153047 68 92 2.0 9.0 0.00 0.00 0.00 86 1010.1
20260830152525 68 39 2.0 9.0 0.00 0.00 0.00 87 1010.0
20260830152027 68 23 2.0 9.0 0.00 0.00 0.00 87 1010.0
20260830151553 68 109 4.0 10.0 0.00 0.00 0.00 87 1010.1
20260830151027 68 219 2.0 10.0 0.00 0.00 0.00 87 1010.3
20260830150527 67 44 4.0 10.0 0.00 0.00 0.00 87 1010.3
20260830150049 67 75 3.0 7.0 0.00 0.00 0.00 88 1010.4
20260830145527 67 0 1.0 9.0 0.00 0.00 0.00 88 1010.5
20260830145026 67 360 2.0 9.0 0.00 0.00 0.00 88 1010.4
20260830144546 67 5 4.0 11.0 0.00 0.00 0.00 89 1010.3
20260830144030 67 45 2.0 11.0 0.00 0.00 0.00 89 1010.3
20260830143528 67 58 3.0 10.0 0.00 0.00 0.00 89 1010.3
20260830143046 67 146 5.0 10.0 0.00 0.00 0.00 89 1010.3
20260830142529 67 32 3.0 7.0 0.00 0.00 0.00 90 1010.4
20260830142025 66 22 2.0 5.0 0.00 0.00 0.00 90 1010.3
20260830141551 66 62 2.0 10.0 0.00 0.00 0.00 90 1010.3
20260830141029 66 0 4.0 10.0 0.00 0.00 0.00 90 1010.3
20260830140527 66 39 2.0 7.0 0.00 0.00 0.00 91 1010.2
20260830140048 66 96 1.0 7.0 0.00 0.00 0.00 91 1010.2
20260830135524 66 25 3.0 7.0 0.00 0.01 0.00 91 1010.2
20260830135031 66 0 2.0 7.0 0.00 0.01 0.00 91 1010.2
20260830134556 66 0 1.0 8.0 0.00 0.01 0.00 91 1010.3
20260830134025 66 0 2.0 8.0 0.00 0.01 0.00 91 1010.4
20260830133525 65 28 3.0 8.0 0.00 0.01 0.00 91 1010.3
20260830133043 65 29 4.0 8.0 0.00 0.01 0.00 92 1010.2
20260830132524 65 101 2.0 8.0 0.00 0.01 0.00 92 1010.2
20260830132027 65 49 1.0 6.0 0.00 0.01 0.00 91 1010.4
20260830131551 65 360 2.0 6.0 0.00 0.01 0.00 91 1010.3
20260830131025 65 338 1.0 5.0 0.00 0.01 0.00 91 1010.1
20260830130526 65 42 2.0 5.0 0.00 0.01 0.00 92 1010.1
20260830130045 65 60 1.0 9.0 0.00 0.01 0.00 92 1010.3
20260830125525 65 0 1.0 9.0 0.00 0.02 0.00 92 1010.2
20260830125025 65 41 2.0 9.0 0.00 0.02 0.00 92 1010.1
20260830124543 65 60 4.0 8.0 0.00 0.02 0.00 91 1009.9
20260830124028 65 335 1.0 7.0 0.00 0.02 0.00 91 1010.0
20260830123525 65 360 2.0 7.0 0.00 0.02 0.00 91 1009.8
20260830123050 65 192 2.0 9.0 0.00 0.02 0.00 91 1009.8
20260830122527 65 29 4.0 9.0 0.00 0.02 0.00 91 1009.8
20260830122025 65 0 2.0 7.0 0.00 0.02 0.00 91 1010.0
20260830121544 65 327 1.0 9.0 0.00 0.02 0.00 91 1009.9
20260830121025 65 60 2.0 9.0 0.00 0.02 0.00 91 1009.8
20260830120525 65 16 1.0 7.0 0.00 0.02 0.00 91 1009.7
20260830120046 65 34 2.0 7.0 0.00 0.02 0.00 91 1009.7
20260830115527 65 25 2.0 7.0 0.00 0.02 0.00 91 1009.7
20260830115027 65 25 2.0 9.0 0.00 0.02 0.00 91 1009.6
20260830114602 65 14 2.0 9.0 0.00 0.02 0.00 91 1009.5
20260830114027 65 40 2.0 8.0 0.00 0.02 0.00 91 1009.5
20260830113527 65 90 2.0 8.0 0.00 0.02 0.00 91 1009.6
20260830113047 65 69 0.0 8.0 0.00 0.02 0.00 91 1009.9
20260830112528 65 60 2.0 8.0 0.00 0.02 0.00 91 1009.8
20260830112024 65 36 2.0 8.0 0.00 0.02 0.00 91 1009.7
20260830111545 65 0 2.0 5.0 0.00 0.02 0.00 91 1009.8
20260830111025 65 34 1.0 4.0 0.00 0.02 0.00 91 1009.8
20260830110527 65 302 0.0 3.0 0.00 0.02 0.00 91 1009.5
20260830110043 65 5 0.0 6.0 0.00 0.02 0.00 91 1009.4
20260830105529 65 0 0.0 6.0 0.00 0.10 0.00 91 1009.5
20260830105027 65 61 2.0 6.0 0.00 0.10 0.00 91 1009.5
20260830104541 65 327 1.0 4.0 0.00 0.10 0.00 91 1009.5
20260830104028 65 39 1.0 5.0 0.00 0.10 0.00 91 1009.7
20260830103528 65 44 2.0 5.0 0.00 0.10 0.00 91 1009.7
20260830103048 65 32 2.0 5.0 0.00 0.10 0.00 91 1009.7
20260830102525 65 44 2.0 5.0 0.00 0.10 0.00 91 1010.0
20260830102025 65 0 1.0 4.0 0.00 0.10 0.00 91 1010.1
20260830101545 65 32 1.0 6.0 0.00 0.10 0.00 91 1010.0
20260830101027 65 0 2.0 6.0 0.00 0.10 0.00 91 1010.0
20260830100524 65 0 0.0 4.0 0.00 0.10 0.00 91 1010.1
20260830100108 65 38 1.0 4.0 0.00 0.10 0.00 91 1010.0
20260830095525 65 51 1.0 4.0 0.00 0.11 0.00 91 1010.0
20260830095026 65 0 0.0 4.0 0.00 0.11 0.00 91 1009.8
20260830094553 65 0 1.0 7.0 0.00 0.11 0.00 91 1009.7
20260830094025 65 46 2.0 7.0 0.00 0.11 0.00 91 1009.8
20260830093527 65 43 1.0 8.0 0.00 0.11 0.00 91 1009.6
20260830093043 65 61 1.0 9.0 0.00 0.11 0.00 91 1009.8
20260830092526 65 89 2.0 9.0 0.00 0.11 0.00 91 1009.7
20260830092028 65 14 3.0 9.0 0.00 0.11 0.00 91 1009.6
20260830091544 65 85 2.0 5.0 0.00 0.11 0.00 91 1009.7
20260830091029 65 76 0.0 5.0 0.00 0.11 0.00 91 1009.6
20260830090527 65 57 0.0 5.0 0.00 0.11 0.00 91 1009.7
20260830090043 65 59 2.0 5.0 0.00 0.11 0.00 91 1009.6
20260830085524 65 350 1.0 4.0 0.00 0.11 0.00 91 1009.7
20260830085025 65 0 1.0 5.0 0.00 0.11 0.00 91 1009.8
20260830084544 65 289 0.0 5.0 0.00 0.11 0.00 91 1009.7
20260830084027 65 300 2.0 5.0 0.00 0.11 0.00 91 1009.6
20260830083525 65 275 0.0 3.0 0.00 0.11 0.00 91 1009.6
20260830083047 65 57 0.0 4.0 0.00 0.11 0.00 91 1009.7
20260830082525 65 133 1.0 5.0 0.00 0.11 0.00 91 1009.7
20260830082027 65 0 1.0 5.0 0.00 0.11 0.00 91 1009.7
20260830081550 65 0 1.0 5.0 0.00 0.11 0.00 91 1009.6
20260830081026 65 102 0.0 3.0 0.00 0.11 0.00 91 1009.5
20260830080524 65 0 0.0 5.0 0.00 0.11 0.00 90 1009.7
20260830080048 66 23 1.0 5.0 0.00 0.11 0.00 90 1009.7
20260830075525 65 32 1.0 5.0 0.00 0.11 0.00 90 1009.7
20260830075025 66 9 1.0 4.0 0.00 0.11 0.00 90 1010.0
20260830074545 66 13 1.0 3.0 0.00 0.11 0.00 90 1009.9
20260830074028 66 287 0.0 2.0 0.00 0.11 0.00 90 1010.0
20260830073525 66 0 1.0 3.0 0.00 0.11 0.00 90 1010.0
20260830073047 66 0 0.0 3.0 0.00 0.11 0.00 90 1010.2
20260830072527 66 351 0.0 3.0 0.00 0.11 0.00 90 1010.4
20260830072025 66 0 0.0 4.0 0.00 0.11 0.00 90 1010.2
20260830071551 66 73 0.0 6.0 0.00 0.11 0.00 90 1010.4
20260830071025 66 5 1.0 7.0 0.00 0.11 0.00 90 1010.3
20260830070524 66 0 2.0 7.0 0.00 0.11 0.00 90 1010.2
20260830070046 66 29 1.0 4.0 0.00 0.11 0.00 90 1010.3
20260830065526 66 341 0.0 4.0 0.00 0.11 0.00 90 1010.4
20260830065025 66 55 0.0 4.0 0.00 0.11 0.00 90 1010.3
20260830064543 66 103 0.0 3.0 0.00 0.11 0.00 90 1010.3
20260830064024 66 82 0.0 5.0 0.00 0.11 0.00 89 1010.3
20260830063527 66 10 1.0 5.0 0.00 0.11 0.00 89 1010.3
20260830063044 66 75 1.0 5.0 0.00 0.11 0.00 90 1010.4
20260830062527 66 163 1.0 5.0 0.00 0.11 0.00 89 1010.4
20260830062027 66 55 2.0 6.0 0.00 0.11 0.00 89 1010.5
20260830061542 67 15 2.0 6.0 0.00 0.11 0.00 89 1010.5
20260830061027 67 57 2.0 7.0 0.00 0.11 0.00 89 1010.4
20260830060526 67 5 1.0 7.0 0.00 0.11 0.00 89 1010.3
20260830060050 67 25 2.0 8.0 0.00 0.11 0.00 89 1010.4
20260830055526 67 0 1.0 8.0 0.00 0.11 0.00 89 1010.4
20260830055027 67 20 2.0 5.0 0.00 0.11 0.00 89 1010.6
20260830054543 67 336 1.0 4.0 0.00 0.11 0.00 89 1010.8
20260830054024 67 44 1.0 4.0 0.00 0.11 0.00 89 1010.7
20260830053525 67 98 1.0 4.0 0.00 0.11 0.00 89 1010.7
20260830053043 67 0 0.0 7.0 0.00 0.11 0.00 89 1010.7
20260830052527 67 138 1.0 7.0 0.00 0.11 0.00 89 1010.5
20260830052027 67 94 2.0 6.0 0.00 0.11 0.00 89 1010.5
20260830051545 67 61 1.0 5.0 0.00 0.11 0.00 89 1010.5
20260830051030 67 344 1.0 4.0 0.00 0.11 0.00 89 1010.6
20260830050529 67 36 1.0 6.0 0.00 0.11 0.00 89 1010.6
20260830050047 67 32 2.0 6.0 0.00 0.11 0.00 89 1010.8
20260830045526 67 19 1.0 6.0 0.00 0.11 0.11 88 1010.8
20260830045028 67 338 2.0 8.0 0.00 0.11 0.11 88 1010.9
20260830044552 67 46 2.0 8.0 0.00 0.11 0.11 88 1011.0
20260830044029 67 69 1.0 6.0 0.00 0.11 0.11 88 1011.0
20260830043530 68 29 2.0 6.0 0.00 0.11 0.11 88 1010.7
20260830043044 68 5 1.0 4.0 0.00 0.11 0.11 88 1010.7
20260830042529 68 295 1.0 5.0 0.00 0.11 0.11 88 1010.6
20260830042029 68 18 2.0 5.0 0.00 0.11 0.11 88 1010.7
20260830041608 68 0 1.0 4.0 0.00 0.11 0.11 87 1010.8
20260830041027 68 327 0.0 4.0 0.00 0.11 0.11 87 1011.0
20260830040530 68 34 1.0 4.0 0.00 0.11 0.11 87 1010.9
20260830040051 68 0 0.0 3.0 0.00 0.11 0.11 87 1011.0
20260830035529 68 15 0.0 3.0 0.00 0.11 0.11 87 1011.2
20260830035028 68 84 1.0 3.0 0.00 0.11 0.11 87 1011.4
20260830034544 68 23 1.0 4.0 0.00 0.11 0.11 86 1011.4
20260830034029 68 43 1.0 4.0 0.00 0.11 0.11 86 1011.4
20260830033530 69 83 0.0 2.0 0.00 0.11 0.11 86 1011.5
20260830033043 69 0 0.0 3.0 0.00 0.11 0.11 86 1011.4
20260830032531 69 36 1.0 3.0 0.00 0.11 0.11 86 1011.4
20260830032027 69 37 0.0 4.0 0.00 0.11 0.11 86 1011.4
20260830031551 69 329 0.0 4.0 0.00 0.11 0.11 86 1011.5
20260830031032 69 24 1.0 4.0 0.00 0.11 0.11 85 1011.4
20260830030529 69 29 1.0 4.0 0.00 0.11 0.11 85 1011.3
20260830030048 69 24 0.0 3.0 0.00 0.11 0.11 85 1011.2
20260830025528 69 101 1.0 3.0 0.00 0.11 0.11 85 1011.3
20260830025026 69 71 1.0 3.0 0.00 0.11 0.11 85 1011.1
20260830024543 70 0 0.0 4.0 0.00 0.11 0.11 85 1011.1
20260830024029 70 352 2.0 4.0 0.00 0.11 0.11 84 1011.0
20260830023529 70 326 0.0 8.0 0.00 0.11 0.11 84 1011.0
20260830023100 70 30 1.0 8.0 0.00 0.11 0.11 84 1010.9
20260830022529 70 0 1.0 8.0 0.00 0.11 0.11 84 1010.6
20260830022030 70 65 2.0 6.0 0.00 0.11 0.11 84 1010.6
20260830021556 70 344 0.0 6.0 0.00 0.11 0.11 83 1010.5
20260830021029 70 0 1.0 6.0 0.00 0.11 0.11 83 1010.5
20260830020529 70 10 1.0 6.0 0.00 0.11 0.11 83 1010.3
20260830020051 70 55 1.0 5.0 0.00 0.11 0.11 83 1010.3
20260830015529 71 0 0.0 5.0 0.00 0.11 0.11 83 1010.4
20260830015029 71 332 1.0 6.0 0.00 0.11 0.11 82 1010.3
20260830014544 71 0 1.0 6.0 0.00 0.11 0.11 82 1010.3
20260830014029 71 0 2.0 7.0 0.00 0.11 0.11 82 1010.3
20260830013527 71 351 2.0 9.0 0.00 0.11 0.11 82 1010.2
20260830013047 71 0 1.0 9.0 0.00 0.11 0.11 81 1010.1
20260830012529 71 58 1.0 8.0 0.00 0.11 0.11 81 1010.3
20260830012030 72 56 2.0 8.0 0.00 0.11 0.11 81 1010.2
20260830011543 72 0 1.0 8.0 0.00 0.11 0.11 80 1010.2
20260830011029 72 61 2.0 8.0 0.00 0.11 0.11 80 1010.2
20260830010528 72 5 2.0 6.0 0.00 0.11 0.11 80 1010.2
20260830010057 73 26 3.0 6.0 0.00 0.11 0.11 79 1010.1
20260830005530 73 51 1.0 9.0 0.00 0.11 0.11 78 1010.1
20260830005032 73 59 2.0 9.0 0.00 0.11 0.11 78 1010.0
20260830004606 74 38 3.0 9.0 0.00 0.11 0.11 77 1010.1
20260830004029 74 40 2.0 9.0 0.00 0.11 0.11 76 1010.2
20260830003528 74 32 3.0 8.0 0.00 0.11 0.11 76 1010.3
20260830003100 74 107 2.0 8.0 0.00 0.11 0.11 75 1010.1
20260830002528 75 0 0.0 3.0 0.00 0.11 0.11 74 1010.2
20260830002030 75 0 0.0 3.0 0.00 0.11 0.11 74 1010.1